Flag for Bosnia-Herzegovina Weather past 2 weeks in Sarajevo, Bosnia-Herzegovina

Now
82 °F

Passing clouds.


Feels Like: 81 °F
Forecast: 55 / 85 °F
Wind: 2 mph from North

Location: Sarajevo / Butmir

Current Time: Sep 2, 2015 at 7:40:11 PM

Latest Report: Sep 2, 2015 at 7:00 PM


Visibility: N/A

Pressure: 29.92 "Hg (28.19 "Hg at 526m altitude)

Humidity: 37%

Dew point: 54 °F

Location of SarajevoLocation

Historic Weather in Sarajevo — Graph

°F

Sarajevo temperature yesterday

Maximum temperature yesterday: 93 °F (at 2:30 PM)
Minimum temperature yesterday: 59 °F (at 7:00 AM)
Average temperature yesterday: 77 °F

Past Weeks' High & Low Weather Summary

 TemperatureHumidityPressure
High93 °F (Aug 29, 4:00 PM)100% (Aug 19, 6:00 AM)30.30 "Hg (Aug 19, 6:00 AM)
Low52 °F (Aug 24, 6:30 AM)21% (Sep 1, 4:00 PM)29.89 "Hg (Sep 2, 6:00 PM)
Average71 °F69%30.11 "Hg
* Reported Aug 18 6:00 PM — Sep 2 6:30 PM, Sarajevo, Weather by CustomWeather, © 2015

Note: Actual official high and low records may vary slightly from our data, if they occured in-between our weather recording intervals... More about our weather records

Advertising

Sarajevo weather history for previous 24 hours

 ConditionsComfort  
Time TempWeatherWind HumidityBarometerVisibility
6:30 PM
Wed, Sep 2
86 °FPassing clouds.3 mph33%29.89 "HgN/A
6:00 PM88 °FPassing clouds.3 mph24%29.89 "HgN/A
5:30 PM90 °FPassing clouds.3 mph24%29.92 "HgN/A
5:00 PM90 °FScattered clouds.3 mph22%29.92 "HgN/A
4:30 PM90 °FScattered clouds.5 mph22%29.92 "HgN/A
4:00 PM90 °FScattered clouds.6 mph24%29.92 "HgN/A
3:00 PM88 °FScattered clouds.6 mph25%29.95 "HgN/A
2:00 PM88 °FPassing clouds.6 mph27%29.95 "HgN/A
1:30 PM86 °FPassing clouds.5 mph31%29.95 "HgN/A
1:00 PM86 °FPassing clouds.3 mph33%29.98 "HgN/A
12:30 PM82 °FPassing clouds.3 mph37%29.98 "HgN/A
12:00 PM81 °FPassing clouds.2 mph37%30.01 "HgN/A
11:30 AM79 °FPassing clouds.2 mph39%30.01 "HgN/A
11:00 AM75 °FPassing clouds.2 mph47%30.01 "HgN/A
10:30 AM73 °FSunny.1 mph50%30.01 "Hg10 mi
10:00 AM70 °FSunny.2 mph57%30.01 "Hg10 mi
9:30 AM68 °FSunny.2 mph60%30.04 "Hg10 mi
9:00 AM63 °FSunny.1 mph73%30.04 "Hg10 mi
8:30 AM63 °FSunny.2 mph73%30.04 "Hg10 mi
8:00 AM59 °FSunny.1 mph82%30.04 "Hg10 mi
7:30 AM57 °FSunny.1 mph82%30.04 "Hg10 mi
7:00 AM55 °FClear.1 mph88%30.04 "Hg10 mi
6:00 AM55 °FClear.1 mph88%30.04 "Hg10 mi
5:30 AM55 °FClear.No wind88%30.01 "Hg10 mi
5:00 AM57 °FClear.1 mph82%30.01 "Hg10 mi
4:00 AM57 °FClear.2 mph82%30.01 "Hg10 mi
3:00 AM59 °FClear.No wind82%30.01 "Hg10 mi
2:00 AM59 °FClear.1 mph82%30.01 "Hg10 mi
1:00 AM63 °FClear.1 mph68%30.01 "Hg10 mi
11:00 PM
Tue, Sep 1
66 °FClear.1 mph60%29.98 "Hg10 mi
10:30 PM66 °FClear.1 mph60%29.98 "Hg10 mi
10:00 PM68 °FClear.1 mph56%29.98 "Hg10 mi
9:30 PM70 °FClear.1 mph53%29.98 "Hg10 mi
9:00 PM73 °FClear.1 mph44%29.98 "Hg10 mi
8:30 PM75 °FPassing clouds.3 mph41%29.98 "HgN/A
8:00 PM79 °FSunny.3 mph34%29.95 "Hg10 mi
7:30 PM82 °FPassing clouds.6 mph30%29.95 "HgN/A
7:00 PM84 °FPassing clouds.7 mph29%29.95 "HgN/A
Weather by CustomWeather, © 2015

See weather overviewHow to use our weather pages